When you browse on this site, cookies collect data to enhance your experience and personalize the content and advertising you see.
Visit our Privacy Policy to learn more. By continuing to use the site, you agree to this use of cookies and data.
  • In Deutschland
  • Länderverzeichnis
  • Für 7 Tage
  • Wassertemperatur
  • Satellitenkarten
  • Wetterkarte
  • Widgets
  • user-avatar
    Anmelden

    Stündliche Wetter Dzhimma

    Heute, 18 Dezember, Dienstag

    Zeit Temperatur Niederschläge Wind Luftdruck Luftfeuchtigkeit
    00:00 +17°C° 0.1 mm 0 m/S 620 mmHg 72%
    01:00 +17°C° 0.1 mm 0 m/S 620 mmHg 74%
    02:00 +16°C° 0 mm 0 m/S 620 mmHg 73%
    03:00 +16°C° 0 mm 0 m/S 620 mmHg 75%
    04:00 +15°C° 0 mm 0 m/S 620 mmHg 77%
    05:00 +15°C° 0 mm 0 m/S 620 mmHg 79%
    06:00 +17°C° 0 mm 0 m/S 621 mmHg 71%
    07:00 +19°C° 0 mm 0 m/S 622 mmHg 63%
    08:00 +22°C° 0 mm 0 m/S 623 mmHg 57%
    09:00 +23°C° 0 mm 0 m/S 623 mmHg 52%
    10:00 +27°C° 0 mm 1 m/S 623 mmHg 47%
    11:00 +28°C° 0 mm 1 m/S 624 mmHg 41%
    12:00 +28°C° 0.1 mm 1 m/S 623 mmHg 42%
    13:00 +27°C° 0.1 mm 1 m/S 622 mmHg 43%
    14:00 +25°C° 0 mm 0 m/S 621 mmHg 44%
    15:00 +23°C° 0 mm 0 m/S 621 mmHg 49%
    16:00 +22°C° 0 mm 0 m/S 620 mmHg 53%
    17:00 +21°C° 0 mm 0 m/S 620 mmHg 57%
    18:00 +20°C° 0.1 mm 0 m/S 620 mmHg 61%
    19:00 +19°C° 0.1 mm 0 m/S 620 mmHg 65%
    20:00 +17°C° 0.1 mm 0 m/S 620 mmHg 69%
    21:00 +17°C° 0.1 mm 0 m/S 620 mmHg 70%
    22:00 +17°C° 0.1 mm 0 m/S 620 mmHg 70%
    23:00 +18°C° 0.1 mm 0 m/S 621 mmHg 70%

    Morgen, 19 Dezember, Mittwoch

    Zeit Temperatur Niederschläge Wind Luftdruck Luftfeuchtigkeit
    00:00 +17°C° 0.1 mm 0 m/S 620 mmHg 72%
    01:00 +17°C° 0.1 mm 0 m/S 620 mmHg 75%
    02:00 +16°C° 0.1 mm 0 m/S 620 mmHg 77%
    03:00 +16°C° 0.1 mm 0 m/S 620 mmHg 78%
    04:00 +16°C° 0.1 mm 0 m/S 620 mmHg 80%
    05:00 +15°C° 0.1 mm 0 m/S 620 mmHg 81%
    06:00 +17°C° 0.1 mm 0 m/S 621 mmHg 75%
    07:00 +19°C° 0.1 mm 0 m/S 622 mmHg 69%
    08:00 +20°C° 0.1 mm 0 m/S 622 mmHg 64%
    09:00 +23°C° 0 mm 0 m/S 623 mmHg 55%
    10:00 +25°C° 0 mm 0 m/S 623 mmHg 47%
    11:00 +28°C° 0 mm 0 m/S 624 mmHg 39%
    12:00 +27°C° 0.1 mm 0 m/S 623 mmHg 40%
    13:00 +27°C° 0.1 mm 0 m/S 622 mmHg 41%
    14:00 +26°C° 0.1 mm 0 m/S 621 mmHg 41%
    15:00 +25°C° 0 mm 0 m/S 621 mmHg 46%
    16:00 +23°C° 0 mm 0 m/S 620 mmHg 50%
    17:00 +22°C° 0 mm 0 m/S 620 mmHg 55%
    18:00 +20°C° 0 mm 0 m/S 620 mmHg 59%
    19:00 +19°C° 0 mm 0 m/S 620 mmHg 63%
    20:00 +20°C° 0 mm 1 m/S 620 mmHg 68%
    21:00 +17°C° 0 mm 0 m/S 620 mmHg 70%
    22:00 +17°C° 0 mm 0 m/S 620 mmHg 71%
    23:00 +16°C° 0 mm 0 m/S 620 mmHg 73%

    übermorgen, 20 Dezember, Donnerstag

    Zeit Temperatur Niederschläge Wind Luftdruck Luftfeuchtigkeit
    00:00 +16°C° 0 mm 0 m/S 620 mmHg 74%
    01:00 +16°C° 0 mm 0 m/S 620 mmHg 74%
    02:00 +16°C° 0 mm 0 m/S 620 mmHg 74%
    03:00 +16°C° 0 mm 0 m/S 619 mmHg 75%
    04:00 +15°C° 0 mm 0 m/S 619 mmHg 76%
    05:00 +15°C° 0 mm 0 m/S 619 mmHg 77%
    06:00 +17°C° 0 mm 0 m/S 620 mmHg 69%
    07:00 +19°C° 0 mm 0 m/S 622 mmHg 60%
    08:00 +21°C° 0 mm 0 m/S 623 mmHg 52%
    09:00 +25°C° 0 mm 1 m/S 623 mmHg 46%
    10:00 +28°C° 0 mm 1 m/S 623 mmHg 40%
    11:00 +30°C° 0 mm 1 m/S 623 mmHg 33%
    12:00 +30°C° 0 mm 1 m/S 623 mmHg 33%
    13:00 +28°C° 0 mm 0 m/S 622 mmHg 32%
    14:00 +29°C° 0 mm 0 m/S 621 mmHg 31%
    15:00 +26°C° 0 mm 0 m/S 621 mmHg 37%
    16:00 +24°C° 0 mm 0 m/S 620 mmHg 42%
    17:00 +22°C° 0 mm 0 m/S 619 mmHg 48%
    18:00 +23°C° 0 mm 1 m/S 620 mmHg 51%
    19:00 +22°C° 0 mm 1 m/S 620 mmHg 55%
    20:00 +21°C° 0 mm 1 m/S 621 mmHg 58%
    21:00 +18°C° 0 mm 0 m/S 620 mmHg 61%
    22:00 +18°C° 0 mm 0 m/S 620 mmHg 64%
    23:00 +17°C° 0 mm 0 m/S 620 mmHg 67%

    21 Dezember, Freitag

    Zeit Temperatur Niederschläge Wind Luftdruck Luftfeuchtigkeit
    00:00 +17°C° 0 mm 0 m/S 620 mmHg 67%
    01:00 +16°C° 0 mm 0 m/S 619 mmHg 67%
    02:00 +16°C° 0 mm 0 m/S 619 mmHg 67%
    03:00 +16°C° 0 mm 0 m/S 619 mmHg 68%
    04:00 +16°C° 0 mm 0 m/S 619 mmHg 69%
    05:00 +15°C° 0 mm 0 m/S 619 mmHg 69%
    06:00 +17°C° 0 mm 0 m/S 620 mmHg 62%
    07:00 +19°C° 0 mm 0 m/S 621 mmHg 55%
    08:00 +21°C° 0 mm 0 m/S 622 mmHg 48%
    09:00 +23°C° 0 mm 0 m/S 623 mmHg 43%
    10:00 +25°C° 0 mm 0 m/S 623 mmHg 38%
    11:00 +28°C° 0 mm 0 m/S 623 mmHg 34%
    12:00 +28°C° 0 mm 0 m/S 622 mmHg 34%
    13:00 +27°C° 0 mm 0 m/S 622 mmHg 34%
    14:00 +27°C° 0 mm 0 m/S 621 mmHg 34%
    15:00 +25°C° 0 mm 0 m/S 620 mmHg 38%
    16:00 +24°C° 0 mm 0 m/S 620 mmHg 43%
    17:00 +22°C° 0 mm 0 m/S 619 mmHg 48%
    18:00 +21°C° 0 mm 0 m/S 619 mmHg 52%
    19:00 +22°C° 0 mm 1 m/S 620 mmHg 56%
    20:00 +21°C° 0 mm 1 m/S 620 mmHg 60%
    21:00 +20°C° 0 mm 1 m/S 620 mmHg 62%
    22:00 +20°C° 0 mm 1 m/S 620 mmHg 64%
    23:00 +20°C° 0 mm 1 m/S 620 mmHg 66%

    22 Dezember, Samstag

    Zeit Temperatur Niederschläge Wind Luftdruck Luftfeuchtigkeit
    00:00 +17°C° 0 mm 0 m/S 619 mmHg 68%
    01:00 +17°C° 0 mm 0 m/S 619 mmHg 70%
    02:00 +17°C° 0 mm 0 m/S 618 mmHg 72%
    03:00 +16°C° 0.1 mm 0 m/S 619 mmHg 74%
    04:00 +16°C° 0.1 mm 0 m/S 619 mmHg 75%
    05:00 +16°C° 0.1 mm 0 m/S 619 mmHg 76%
    06:00 +17°C° 0 mm 0 m/S 620 mmHg 70%
    07:00 +19°C° 0 mm 0 m/S 621 mmHg 64%
    08:00 +20°C° 0 mm 0 m/S 622 mmHg 57%
    09:00 +23°C° 0 mm 0 m/S 622 mmHg 50%
    10:00 +25°C° 0 mm 0 m/S 623 mmHg 42%
    11:00 +30°C° 0 mm 1 m/S 623 mmHg 35%
    12:00 +27°C° 0 mm 0 m/S 622 mmHg 35%
    13:00 +27°C° 0 mm 0 m/S 621 mmHg 35%
    14:00 +26°C° 0 mm 0 m/S 620 mmHg 36%
    15:00 +25°C° 0 mm 0 m/S 619 mmHg 39%
    16:00 +24°C° 0 mm 0 m/S 619 mmHg 43%
    17:00 +22°C° 0 mm 0 m/S 619 mmHg 47%
    18:00 +21°C° 0 mm 0 m/S 619 mmHg 49%
    19:00 +20°C° 0 mm 0 m/S 619 mmHg 52%
    20:00 +19°C° 0 mm 0 m/S 620 mmHg 54%
    21:00 +19°C° 0 mm 0 m/S 620 mmHg 55%
    22:00 +19°C° 0 mm 0 m/S 620 mmHg 56%
    23:00 +18°C° 0 mm 0 m/S 620 mmHg 57%

    23 Dezember, Sonntag

    Zeit Temperatur Niederschläge Wind Luftdruck Luftfeuchtigkeit
    00:00 +18°C° 0 mm 0 m/S 619 mmHg 59%
    01:00 +18°C° 0 mm 0 m/S 619 mmHg 61%
    02:00 +17°C° 0 mm 0 m/S 619 mmHg 63%
    03:00 +17°C° 0 mm 0 m/S 619 mmHg 65%
    04:00 +16°C° 0 mm 0 m/S 619 mmHg 68%
    05:00 +15°C° 0 mm 0 m/S 619 mmHg 70%
    06:00 +17°C° 0 mm 0 m/S 620 mmHg 64%
    07:00 +19°C° 0 mm 0 m/S 621 mmHg 57%
    08:00 +21°C° 0 mm 0 m/S 622 mmHg 50%
    09:00 +25°C° 0 mm 1 m/S 622 mmHg 45%
    10:00 +27°C° 0 mm 1 m/S 622 mmHg 39%
    11:00 +30°C° 0 mm 1 m/S 623 mmHg 34%
    12:00 +29°C° 0 mm 1 m/S 622 mmHg 34%
    13:00 +27°C° 0 mm 0 m/S 621 mmHg 34%
    14:00 +27°C° 0 mm 0 m/S 620 mmHg 34%
    15:00 +25°C° 0 mm 0 m/S 620 mmHg 39%
    16:00 +24°C° 0 mm 0 m/S 620 mmHg 43%
    17:00 +22°C° 0 mm 0 m/S 619 mmHg 47%
    18:00 +21°C° 0 mm 0 m/S 619 mmHg 50%
    19:00 +20°C° 0 mm 0 m/S 620 mmHg 54%
    20:00 +18°C° 0 mm 0 m/S 620 mmHg 57%
    21:00 +18°C° 0 mm 0 m/S 620 mmHg 59%
    22:00 +17°C° 0 mm 0 m/S 620 mmHg 60%
    23:00 +17°C° 0 mm 0 m/S 619 mmHg 62%
    Mehr zeigen